PulseSat

PulseSat

IRIDIUM 46 [P]

Last updated on May 30, 2018, 12:19 a.m. UTC

1 24905U 97043C   18149.49644497  .00059131 -32071-6  41682-3 0  9996
2 24905  86.3862 103.6073 0285244 331.4217  27.1641 15.35296195 88442
UTC
Height (km)
Latitude
Longitude
Inclination
Orbital Period

Next 30 passes for location: Hong Kong

Rise time Rise Azimuth (degrees) Set time Set Azimuth (degrees) Duration Max altitude (degrees)

No matching passes for this satellites

PulseSat

PulseSat is the new satellites software and hardware trackering solution by Pulsely.
Satellite Two Line Element Set source: US Air Force Space Command

Download PulseSat for iOS
© 2017 Pulsely Limited